Overview Statistics Trail Chart Weather Telemetry Raw packets
 

This is the latest recevied weather packets stored in our database for station/object AA6HF. If no packets are shown the sender has not sent any weather packets the latest 10 day(s).

<< 107 108 109 110 111 112 113 >>
Time Temp. Humidity Pressure Rain* Wind** Luminosity Snow
1787870327 39.44° C 26% 1005.7 hPa 0 mm - - -
1787870027 40° C 28% 1005.9 hPa 0 mm - - -
1787869727 40° C 28% 1006.1 hPa 0 mm - - -
1787869427 40° C 28% 1005.9 hPa 0 mm - - -
1787869127 40° C 27% 1006 hPa 0 mm - - -
1787868827 40° C 27% 1006.3 hPa 0 mm - - -
1787868527 40.56° C 28% 1006.5 hPa 0 mm - - -
1787868227 40.56° C 29% 1006.5 hPa 0 mm - - -
1787867927 40° C 30% 1006.6 hPa 0 mm - - -
1787867627 40.56° C 29% 1006.7 hPa 0 mm - - -
1787867327 40.56° C 30% 1006.8 hPa 0 mm - - -
1787867027 40.56° C 28% 1006.8 hPa 0 mm - - -
1787866727 41.11° C 29% 1006.9 hPa 0 mm - - -
1787866428 41.11° C 29% 1007.1 hPa 0 mm - - -
1787866127 41.11° C 29% 1007.1 hPa 0 mm - - -
1787865828 40.56° C 29% 1007.2 hPa 0 mm - - -
1787865528 39.44° C 31% 1007.4 hPa 0 mm - - -
1787865228 39.44° C 31% 1007.4 hPa 0 mm - - -
1787864928 39.44° C 31% 1007.4 hPa 0 mm - - -
1787864628 39.44° C 31% 1007.4 hPa 0 mm - - -
1787864328 40° C 30% 1007.5 hPa 0 mm - - -
1787864028 40.56° C 30% 1007.7 hPa 0 mm - - -
1787863728 40° C 30% 1007.8 hPa 0 mm - - -
1787863428 39.44° C 31% 1007.8 hPa 0 mm - - -
1787863128 38.89° C 31% 1007.8 hPa 0 mm - - -

* Rain latest hour (hover to see other rain measurements)
** Current wind speed in m/s (hover to see current wind gust speed)